Mineral Wells, TX

12:08 AM CST on February 22, 2018 (GMT -0600)
Mineral Wells

Weather History for KMWL - January, 2013

Change the Weather History Date:

Monday, January 28, 2013

  Actual Average Record
Temperature  
Mean Temperature 70 °F -  
Max Temperature 80 °F 56 °F 80 °F (2013)
Min Temperature 61 °F 33 °F 16 °F (2009)
Cooling Degree Days 6    
Growing Degree Days 20 (Base 50)    
Moisture  
Dew Point 61 °F    
Average Humidity 75    
Maximum Humidity 97    
Minimum Humidity 48    
Precipitation  
Precipitation 0.00 in - - ()
Sea Level Pressure  
Sea Level Pressure 29.87 in    
Wind  
Wind Speed 11 mph (SSE)    
Max Wind Speed 23 mph    
Max Gust Speed 32 mph    
Visibility 9 miles    
Events      
Averages and records for this station are not official NWS values.
T = Trace of Precipitation, MM = Missing Value Source: NWS Daily Summary

Daily Weather History Graph

Daily Weather History Graph

Search for Another Location

Airport or City:

Trip Planner

Search our weather history database for the weather conditions in past years. The results will help you decide how hot, cold, wet, or windy it might be!

Date:

Astronomy

Jan. 28, 2013 Rise Set
Actual Time 7:29 AM CST 6:01 PM CST
Civil Twilight 7:03 AM CST 6:27 PM CST
Nautical Twilight 6:33 AM CST 6:57 PM CST
Astronomical Twilight 6:04 AM CST 7:26 PM CST
Moon 7:48 PM CST (1/28) 8:03 AM CST (1/28)
Length of Visible Light 11h 24m
Length of Day
10h 31m
Full, 98% of the Moon is Illuminated
Jan 28
Full
Feb 3
Last Quarter
Feb 10
New
Feb 17
First Quarter
Feb 25
Full

Hourly Weather History & Observations

Time (CST) Temp. Heat Index Dew Point Humidity Pressure Visibility Wind Dir Wind Speed Gust Speed Precip Events Conditions
12:53 AM 63.0 °F - 60.1 °F 90% 29.94 in 10.0 mi SSE 10.4 mph - N/A   Clear
1:53 AM 62.1 °F - 60.1 °F 93% 29.94 in 8.0 mi SSE 9.2 mph - N/A   Clear
2:53 AM 62.1 °F - 61.0 °F 96% 29.94 in 8.0 mi SE 8.1 mph - N/A   Overcast
3:53 AM 61.0 °F - 60.1 °F 97% 29.93 in 6.0 mi SE 8.1 mph - N/A   Mostly Cloudy
4:53 AM 62.1 °F - 61.0 °F 96% 29.92 in 5.0 mi SE 5.8 mph - N/A   Overcast
5:53 AM 64.0 °F - 62.1 °F 93% 29.91 in 6.0 mi SE 8.1 mph - N/A   Overcast
6:53 AM 64.0 °F - 62.1 °F 93% 29.92 in 6.0 mi SE 6.9 mph - N/A   Overcast
7:53 AM 64.0 °F - 62.1 °F 93% 29.94 in 6.0 mi SE 5.8 mph - N/A   Overcast
8:53 AM 66.0 °F - 62.1 °F 87% 29.94 in 8.0 mi SSE 8.1 mph - N/A   Overcast
9:53 AM 68.0 °F - 62.1 °F 81% 29.95 in 9.0 mi South 11.5 mph - N/A   Overcast
10:19 AM 71.6 °F - 62.6 °F 73% 29.97 in 10.0 mi South 13.8 mph - N/A   Overcast
10:50 AM 69.8 °F - 62.6 °F 78% 29.96 in 9.0 mi South 13.8 mph 20.7 mph N/A   Overcast
10:53 AM 70.0 °F - 62.1 °F 76% 29.93 in 9.0 mi South 12.7 mph 20.7 mph N/A   Overcast
11:53 AM 73.0 °F - 62.1 °F 68% 29.90 in 10.0 mi SSE 11.5 mph - N/A   Overcast
12:48 PM 73.4 °F - 62.6 °F 69% 29.89 in 10.0 mi South 15.0 mph - N/A   Overcast
12:53 PM 73.9 °F - 62.1 °F 66% 29.86 in 10.0 mi South 12.7 mph - N/A   Overcast
1:53 PM 79.0 °F - 60.1 °F 52% 29.81 in 10.0 mi South 23.0 mph 31.1 mph N/A   Mostly Cloudy
2:53 PM 80.1 °F 80.7 °F 59.0 °F 48% 29.78 in 10.0 mi South 21.9 mph 29.9 mph N/A   Mostly Cloudy
3:53 PM 79.0 °F - 59.0 °F 50% 29.77 in 10.0 mi South 19.6 mph 32.2 mph N/A   Mostly Cloudy
4:53 PM 79.0 °F - 59.0 °F 50% 29.77 in 10.0 mi South 20.7 mph 28.8 mph N/A   Mostly Cloudy
5:53 PM 75.0 °F - 59.0 °F 57% 29.78 in 10.0 mi South 13.8 mph 24.2 mph N/A   Overcast
6:53 PM 73.0 °F - 59.0 °F 61% 29.78 in 10.0 mi SSE 13.8 mph - N/A   Scattered Clouds
7:53 PM 72.0 °F - 60.1 °F 66% 29.79 in 10.0 mi South 15.0 mph 21.9 mph N/A   Clear
8:53 PM 70.0 °F - 60.1 °F 71% 29.81 in 10.0 mi South 15.0 mph - N/A   Clear
9:53 PM 70.0 °F - 61.0 °F 73% 29.81 in 10.0 mi South 13.8 mph - N/A   Scattered Clouds
10:53 PM 68.0 °F - 61.0 °F 78% 29.79 in 10.0 mi SSE 13.8 mph - N/A   Clear
11:53 PM 66.9 °F - 61.0 °F 81% 29.78 in 10.0 mi SSE 13.8 mph - N/A   Clear